Vertical_Velocity
-3 -4 -5 -5 4 -8 -2 -2 -2 0 -4 -1 -2 -3 -1 1 -2 -2 -3 -2 1 -1 -2 7 -1 0 3 3 -1 -0 2 -6 1 2 0 2 2 5 1 2 -1 -1 -3 7
-4 -5 -1 -6 -3 -5 -2 -2 -3 -3 -3 3 5 -0 -3 -1 -0 -0 3 -2 -1 -0 -3 -6 -2 1 -1 4 5 1 0 -6 -2 0 3 3 4 4 3 1 -1 3 -5 7
-2 -3 -4 2 -4 -6 -1 -1 -5 0 0 -6 -6 -1 2 3 -2 -2 -0 -1 0 2 6 4 -2 -1 -3 5 5 6 4 1 2 3 5 4 5 7 8 -1 -6 3 5 6
-4 -1 -5 -5 -1 -3 -1 -6 -4 -0 1 6 -2 -2 -1 -3 3 0 4 3 -3 -5 -3 0 -1 -1 5 9 4 8 9 5 -1 7 8 4 3 0 -1 2 4 -10 21 -4
-3 -5 5 1 -5 -8 -3 4 -2 -5 -4 -4 -2 -1 1 3 -3 0 3 -2 -2 -1 -4 -8 -4 -7 -5 -1 5 3 7 5 4 5 7 2 5 -1 -2 2 2 2 -3 6
-6 -4 -4 -3 -4 -4 -6 -2 -4 -2 1 -3 -4 -3 -3 -3 -3 -5 -1 -0 -2 0 4 1 -4 -6 -7 -8 -6 -3 2 0 -2 -2 3 2 7 1 4 1 2 -1 0 -0
-5 -4 -3 -5 -5 -5 -2 -3 -0 -1 -5 -0 -1 -1 -2 1 -1 0 -2 -2 -3 2 -5 -12 -9 -11 -4 -0 -1 -1 -2 -2 -3 -3 -4 -1 1 0 2 3 -2 -3 -2 -1
-2 -3 -4 -4 -2 -3 -2 -2 -2 -5 -5 -2 -4 -1 -1 -4 -5 -7 3 -5 2 -0 0 0 -5 -6 -7 -3 1 1 -2 -0 -2 -1 -1 -0 -3 0 -0 4 7 0 1 0
-4 -3 -6 -2 -1 -1 0 -1 -1 1 -5 -5 -1 -2 1 -1 -0 -2 -10 -6 -4 -0 -1 1 -2 -5 -12 -8 -7 -1 3 2 1 0 -3 -0 0 -0 2 -3 -1 1 -2 -1
-5 -2 -2 -2 1 -1 -3 -2 -1 -1 -3 -3 -4 -4 -1 -1 -2 -2 0 -2 -1 1 -0 -2 -2 -4 -4 -7 -6 -6 -6 -1 -2 -1 -1 -1 -0 -2 -1 -5 -1 1 -4 -4
-2 -1 -0 -2 -2 -2 -2 -3 1 -2 -1 -1 -3 -3 1 -1 1 3 -0 -3 -5 -3 -3 -3 -4 -6 -3 -4 -5 -4 -5 -4 -3 -1 -0 -0 -3 1 -6 -4 0 -3 -1 -5
-2 -1 2 -2 -4 -2 -2 -2 -2 -1 -1 -1 -1 -2 -2 -1 -1 -1 -3 -4 -1 -2 -3 -3 -3 -5 -4 -3 -4 -3 -4 -4 -5 -6 -4 -1 -1 0 -1 -0 0 2 1 0
1 -0 1 -2 -2 1 -0 -3 -4 -2 -1 -0 -2 -1 -0 -3 -1 2 1 -2 -1 -1 -4 -4 -3 -2 -3 -3 -4 -3 -3 -2 0 0 -2 -4 -4 -5 -6 -5 -2 -0 -3 -3
1 1 0 4 -0 -5 -0 -3 -1 -3 -2 -2 -2 -1 3 6 1 -1 1 2 -0 -0 -1 -1 -1 -1 0 -0 2 -1 -2 -1 0 3 4 3 0 -5 -3 1 -2 -1 1 -2
1 -0 -2 -5 3 1 0 -3 -1 -1 2 -0 -3 -1 2 1 3 6 3 2 2 1 -1 -1 -1 -2 -2 -2 -2 -2 -2 -1 -2 -2 2 1 3 3 -1 2 -1 -1 -2 6
1 -1 -2 -3 -0 1 1 0 -1 -6 -3 1 -0 2 -3 0 1 -1 4 4 2 1 -0 -1 -1 0 -3 -1 0 0 3 5 2 -3 1 -2 -3 1 1 2 -1 -1 -0 -1
-0 -3 -2 -1 0 -0 -1 -3 -0 -2 -2 -1 0 -1 -5 -0 -1 -3 -0 -3 1 0 -0 -0 -0 -1 -0 -1 -1 0 1 0 0 -2 0 12 2 3 5 2 1 2 -1 -2
2 -3 -0 1 2 0 1 -3 -1 1 -0 2 -3 1 4 3 3 5 4 3 1 2 -1 1 -0 -0 -0 1 1 -0 0 -1 -1 0 -1 0 1 -1 -5 -4 3 3 1 -0
-0 0 -1 -1 2 4 2 2 3 2 6 0 2 0 -4 -3 2 -0 7 9 3 5 1 1 -0 -0 -0 0 1 1 1 0 2 1 -2 -2 -3 1 1 0 -1 1 3 2
-2 2 -6 -5 -7 -2 0 -2 0 2 1 2 1 3 2 -2 0 -4 -1 0 1 1 -1 2 1 2 1 0 -0 1 -1 -0 2 5 11 10 -1 -1 2 3 1 0 1 2
3 -3 3 3 -2 3 0 -2 0 -3 -4 -1 1 1 1 -3 -0 -0 -1 -2 1 1 -0 1 -0 0 -0 0 1 -0 1 -2 -2 -2 -3 -4 -1 3 3 3 1 -0 -1 0
-5 -9 -6 1 -3 -6 -6 -3 -1 -3 -4 -3 -1 -2 3 -2 -3 -1 -3 3 -2 -1 2 1 1 2 0 0 1 1 -1 0 -0 1 1 -0 -1 -1 -2 -1 -1 1 1 0
3 -4 -4 -8 -0 -1 -1 -8 -2 -4 -3 3 -0 -5 3 -5 -2 2 -2 -4 -0 5 1 -1 1 1 1 1 -1 -1 1 2 1 -2 -3 -3 -3 -2 -0 -2 -2 -1 -1 2
-8 -5 -2 2 -5 0 -2 -0 0 1 0 -0 0 3 -6 -5 0 -3 -2 1 0 -1 -1 2 1 1 0 -0 1 2 1 1 1 1 0 -0 0 -1 -0 -2 -0 -1 -1 -1
-6 -4 -3 -2 -3 -7 -2 -1 -0 -2 -1 -1 -1 6 5 0 1 1 -2 -3 -1 1 1 1 1 1 1 1 1 0 0 -0 -0 0 1 -0 -1 -1 -1 -1 -2 -3 -3 -3
-3 -2 2 2 2 -0 -1 -2 -1 -1 0 -1 -2 2 -5 2 2 3 3 1 1 -0 0 1 1 1 1 1 -0 -0 0 1 0 -0 -1 -2 -1 -0 -2 -0 0 -0 -0 -0
2 -2 -2 -4 -3 -4 -4 0 1 -3 -0 0 -2 -4 -3 -3 2 0 -0 1 1 1 0 0 1 1 0 0 1 1 0 -0 -1 -2 -0 -1 -2 -1 -1 -4 -5 -4 -2 -1
Height
5720 5711 5700 5691 5680 5666 5655 5644 5635 5625 5616 5608 5598 5590 5582 5576 5568 5561 5555 5548 5542 5537 5530 5527 5521 5516 5512 5507 5505 5502 5500 5497 5497 5499 5499 5500 5500 5501 5500 5501 5503 5504 5506 5510
5715 5705 5695 5684 5673 5663 5652 5640 5630 5620 5611 5602 5593 5583 5575 5568 5561 5553 5545 5539 5534 5528 5521 5514 5508 5501 5495 5491 5485 5483 5480 5479 5479 5482 5485 5487 5487 5487 5487 5487 5489 5493 5495 5499
5711 5700 5690 5679 5668 5656 5647 5636 5624 5615 5605 5595 5586 5578 5570 5562 5552 5544 5539 5533 5527 5521 5513 5505 5495 5484 5475 5467 5464 5463 5460 5459 5463 5466 5469 5470 5473 5473 5473 5474 5477 5481 5483 5486
5707 5696 5685 5674 5663 5652 5641 5628 5619 5609 5599 5589 5579 5570 5562 5553 5546 5539 5534 5527 5519 5512 5504 5494 5482 5470 5458 5452 5444 5444 5446 5443 5444 5450 5452 5453 5454 5455 5457 5462 5466 5465 5471 5470
5701 5691 5682 5670 5657 5646 5636 5625 5613 5601 5591 5581 5573 5564 5556 5548 5539 5534 5527 5520 5513 5505 5495 5484 5471 5456 5440 5433 5430 5425 5427 5429 5431 5436 5438 5439 5441 5442 5444 5447 5449 5451 5454 5454
5695 5685 5675 5665 5655 5643 5631 5616 5606 5595 5586 5576 5567 5558 5549 5541 5534 5528 5521 5515 5507 5499 5489 5476 5463 5448 5431 5421 5419 5416 5415 5417 5419 5423 5426 5427 5430 5431 5434 5434 5436 5436 5439 5441
5689 5678 5668 5657 5647 5636 5624 5614 5602 5590 5580 5570 5561 5552 5543 5536 5529 5523 5516 5509 5502 5494 5481 5469 5456 5442 5429 5423 5418 5417 5416 5416 5416 5418 5419 5420 5420 5420 5421 5422 5422 5423 5424 5426
5683 5673 5662 5650 5639 5628 5617 5606 5594 5583 5574 5565 5555 5548 5539 5530 5523 5517 5512 5504 5498 5488 5478 5467 5454 5442 5431 5424 5420 5417 5415 5415 5415 5415 5416 5417 5416 5416 5415 5414 5416 5414 5415 5415
5677 5666 5655 5643 5631 5620 5609 5598 5587 5577 5567 5559 5551 5543 5535 5526 5519 5512 5505 5499 5492 5484 5474 5464 5454 5444 5435 5425 5419 5416 5414 5413 5412 5411 5411 5411 5409 5407 5406 5404 5408 5407 5406 5405
5671 5660 5650 5638 5626 5615 5604 5593 5582 5572 5562 5554 5547 5539 5531 5523 5516 5509 5502 5494 5489 5481 5472 5462 5451 5442 5436 5429 5422 5417 5414 5411 5410 5408 5406 5406 5403 5401 5400 5398 5402 5398 5397 5396
5666 5654 5642 5631 5619 5608 5599 5587 5577 5567 5558 5549 5542 5535 5527 5519 5512 5506 5499 5493 5485 5478 5470 5461 5450 5442 5435 5429 5424 5421 5417 5413 5410 5407 5404 5401 5397 5396 5394 5394 5392 5391 5390 5387
5660 5647 5635 5625 5613 5602 5591 5582 5571 5562 5554 5546 5538 5531 5523 5515 5508 5502 5496 5490 5483 5475 5467 5459 5450 5443 5436 5430 5426 5421 5417 5414 5410 5406 5402 5398 5394 5391 5389 5387 5385 5383 5381 5378
5652 5640 5629 5618 5606 5595 5584 5575 5565 5557 5549 5542 5534 5526 5519 5511 5504 5498 5493 5486 5479 5472 5465 5458 5451 5445 5437 5430 5425 5420 5415 5412 5408 5406 5402 5398 5394 5390 5386 5382 5378 5375 5373 5369
5644 5633 5622 5612 5600 5589 5579 5569 5560 5552 5545 5537 5531 5523 5516 5509 5501 5494 5488 5482 5476 5469 5463 5457 5451 5445 5439 5431 5425 5419 5415 5410 5407 5403 5398 5395 5391 5386 5382 5379 5374 5370 5365 5360
5637 5626 5614 5606 5595 5584 5574 5565 5557 5549 5542 5533 5527 5520 5513 5505 5498 5491 5485 5479 5472 5466 5459 5453 5447 5442 5436 5430 5422 5416 5411 5407 5403 5397 5393 5389 5386 5381 5377 5374 5369 5365 5360 5356
5630 5619 5608 5598 5587 5577 5569 5561 5553 5544 5537 5530 5523 5516 5509 5502 5495 5487 5481 5475 5469 5462 5455 5449 5443 5438 5432 5426 5421 5416 5410 5406 5398 5392 5388 5383 5379 5375 5371 5368 5364 5360 5357 5352
5622 5611 5601 5591 5580 5571 5563 5556 5549 5540 5533 5526 5519 5512 5505 5498 5491 5483 5477 5469 5463 5457 5452 5445 5440 5433 5429 5422 5417 5412 5408 5402 5395 5388 5383 5382 5375 5369 5364 5361 5358 5355 5352 5350
5614 5604 5595 5584 5574 5565 5559 5551 5544 5536 5528 5521 5513 5507 5501 5494 5487 5480 5473 5465 5457 5452 5446 5442 5436 5430 5424 5419 5413 5407 5401 5397 5393 5386 5380 5373 5368 5362 5357 5353 5351 5349 5346 5344
5607 5596 5587 5578 5569 5561 5554 5547 5539 5531 5525 5516 5508 5501 5494 5488 5481 5474 5468 5459 5452 5446 5442 5437 5433 5426 5420 5413 5407 5402 5396 5390 5386 5380 5373 5367 5362 5357 5352 5348 5344 5341 5339 5337
5598 5589 5578 5570 5563 5554 5549 5542 5534 5525 5518 5509 5503 5496 5489 5483 5475 5468 5461 5453 5445 5440 5437 5433 5427 5422 5416 5409 5403 5397 5391 5384 5378 5374 5369 5364 5357 5352 5346 5342 5338 5334 5331 5329
5588 5580 5572 5564 5556 5550 5543 5535 5526 5517 5510 5504 5497 5491 5485 5477 5471 5463 5456 5448 5441 5436 5433 5428 5422 5416 5410 5404 5397 5391 5385 5378 5372 5366 5360 5354 5349 5344 5338 5333 5328 5325 5322 5320
5579 5571 5563 5557 5549 5542 5535 5527 5519 5510 5504 5497 5491 5486 5480 5472 5465 5458 5450 5444 5437 5432 5427 5422 5416 5411 5404 5398 5392 5385 5379 5373 5367 5361 5354 5348 5342 5337 5331 5325 5320 5315 5311 5309
5571 5563 5556 5549 5543 5536 5527 5520 5513 5505 5499 5493 5486 5480 5474 5466 5460 5452 5445 5438 5432 5426 5421 5415 5410 5403 5397 5391 5384 5378 5372 5366 5360 5354 5348 5342 5336 5329 5323 5317 5310 5304 5300 5296
5561 5555 5549 5544 5535 5530 5522 5515 5508 5501 5494 5487 5481 5474 5468 5460 5454 5446 5439 5433 5424 5418 5413 5409 5403 5396 5390 5384 5378 5372 5366 5360 5354 5348 5342 5336 5329 5322 5315 5308 5301 5295 5289 5283
5553 5547 5541 5536 5530 5524 5518 5510 5503 5496 5489 5483 5476 5470 5463 5455 5448 5440 5433 5426 5420 5414 5409 5402 5395 5389 5383 5377 5371 5365 5359 5353 5347 5342 5335 5328 5321 5314 5307 5300 5293 5286 5279 5274
5548 5541 5535 5530 5524 5518 5511 5504 5496 5490 5483 5477 5470 5463 5455 5447 5441 5435 5428 5422 5415 5408 5401 5395 5389 5382 5376 5370 5364 5358 5352 5346 5341 5335 5328 5320 5313 5305 5298 5292 5285 5278 5271 5265
5542 5534 5527 5522 5517 5512 5505 5499 5492 5485 5478 5470 5462 5454 5447 5441 5435 5429 5422 5416 5409 5402 5394 5388 5382 5376 5369 5363 5357 5351 5346 5340 5333 5327 5320 5312 5304 5297 5289 5282 5275 5268 5261 5255